User: anonymous   Login
Location: Chequamegon National Forest
(46.1070°N, 90.8420°W)
Time: 18:39:48
(UTC-05:00)
Language:

ISS - Orbit

View from above orbital plane
View from above orbital plane
View from above satellite
View from above satellite

Ground track
Ground track

The orbit data is extracted from the following two-line orbital elements,

1 25544U 98067A   17114.46713588  .00016717  00000-0  10270-3 0  9036
2 25544  51.6411 306.0715 0006644  85.8935 274.2971 15.54161511 13398
Epoch (UTC): 24 April 2017 11:12:40
Eccentricity: 0.0006644
inclination: 51.6411°
perigee height: 400 km
apogee height: 409 km
right ascension of ascending node: 306.0715°
argument of perigee: 85.8935°
revolutions per day: 15.54161511
mean anomaly at epoch: 274.2971°
orbit number at epoch: 1339

The dashed part of the orbit path shows where the satellite is in the earth's shadow,  

DLR